DateTime,F1_A11,F1_S11,BsB_S11,BsG_S11,BsR_S11,BbsB_S11,BbsG_S11,BbsR_S11,BaB_A11,BaG_A11,BaR_A11,T_S11,U_S11,P_S11,T1_A11
2016-08-19T00:00:00Z,0000380,20000600,,,,,,,,,,26.5,05.0,0665.3,34.7
2016-08-19T00:01:00Z,0000380,20000600,,,,,,,,,,26.5,05.0,0665.3,34.7
2016-08-19T00:02:00Z,0000380,20000600,,,,,,,,,,26.5,05.0,0665.3,34.7
2016-08-19T00:03:00Z,0000380,60000600,,,,,,,,,,26.5,05.0,0665.3,34.7
2016-08-19T00:04:00Z,0000380,40000600,0003.03,0001.66,0000.23,-000.36,0000.22,-000.22,0000.09,-000.01,-000.02,26.5,05.0,0666.3,34.7
2016-08-19T00:05:00Z,0000380,00000600,0002.13,0000.92,0000.44,0000.49,0000.46,-000.06,0000.07,0000.06,0000.03,26.5,04.9,0666.4,34.7
2016-08-19T00:06:00Z,0000380,00000600,0002.54,0001.29,0000.19,0000.41,0000.41,-000.03,0000.04,0000.02,0000.10,26.4,04.9,0666.4,34.7
2016-08-19T00:07:00Z,0000380,00000600,0001.93,0001.72,0001.22,-000.35,0000.25,-000.13,0000.15,0000.14,-000.11,26.4,05.0,0666.5,34.7
2016-08-19T00:08:00Z,0000380,00000600,0002.78,0001.67,0000.84,0000.32,0000.19,0000.10,0000.09,0000.12,0000.27,26.3,05.0,0666.5,34.7
2016-08-19T00:09:00Z,0000380,00000600,0002.06,0002.00,0001.00,0000.06,0000.14,-000.46,-000.13,0000.04,-000.10,26.3,05.0,0666.5,34.7
2016-08-19T00:10:00Z,0000380,00000600,0002.14,0001.28,0001.03,-000.08,0000.30,-000.05,0000.15,-000.09,0000.36,26.3,04.9,0666.5,34.7
2016-08-19T00:11:00Z,0000388,00000608,0002.34,0001.14,0000.76,0000.13,0000.03,-000.25,0000.23,0000.26,-000.32,26.3,05.0,0666.5,34.7
2016-08-19T00:12:00Z,0000388,00000608,0002.03,0001.32,0000.87,0000.30,0000.03,0000.10,0000.11,0000.00,0000.43,26.3,05.0,0666.5,34.7
2016-08-19T00:13:00Z,0000388,00000608,0002.86,0002.15,0001.03,0000.46,0000.46,-000.02,-000.10,0000.26,0000.02,26.3,04.9,0666.4,34.7
2016-08-19T00:14:00Z,0000388,00000608,0001.80,0002.40,0001.15,-000.03,0000.17,0000.14,0000.20,-000.10,0000.05,26.2,05.0,0666.4,34.7
2016-08-19T00:15:00Z,0000388,00000608,0002.81,0001.57,0000.79,-000.43,0000.32,-000.14,-000.16,-000.06,-000.09,26.2,05.0,0666.5,34.7
2016-08-19T00:16:00Z,0000388,00000608,0002.11,0001.35,0000.88,0000.54,0000.28,0000.46,0000.11,0000.22,0000.06,26.2,04.9,0666.5,34.7
2016-08-19T00:17:00Z,0000388,00000608,0002.62,0001.96,0000.66,0000.21,-000.02,0000.24,0000.15,0000.10,0000.29,26.2,05.0,0666.5,34.7
2016-08-19T00:18:00Z,0000388,00000608,0002.24,0002.14,0000.55,0000.14,0000.25,-000.08,-000.10,0000.09,0000.01,26.2,04.9,0666.4,34.7
2016-08-19T00:19:00Z,0000388,00000608,0002.62,0001.63,0000.65,0000.30,-000.05,0000.21,0000.29,-000.17,-000.10,26.2,05.0,0666.5,34.7
2016-08-19T00:20:00Z,0000388,00000608,0002.49,0002.01,0001.04,0000.22,0000.36,-000.05,-000.01,0000.17,0000.05,26.2,04.9,0666.4,34.7
2016-08-19T00:21:00Z,0000388,00000608,0001.96,0002.03,0000.44,0000.24,0000.55,0000.22,0000.14,0000.05,-000.07,26.1,04.9,0666.5,34.7
2016-08-19T00:22:00Z,0000388,00000608,0002.44,0001.72,0000.74,0000.32,0000.19,0000.35,-000.01,-000.02,-000.22,26.1,04.9,0666.5,34.7
2016-08-19T00:23:00Z,0000388,00000608,0002.44,0002.14,0000.47,0000.14,0000.44,-000.36,-000.03,0000.26,0000.27,26.1,05.0,0666.5,34.7
2016-08-19T00:24:00Z,0000388,00000608,0001.93,0001.88,0000.78,-000.30,0000.44,-000.13,0000.16,-000.01,0000.42,26.1,05.0,0666.4,34.7
2016-08-19T00:25:00Z,0000388,00000608,0002.30,0001.74,0000.91,-000.36,-000.02,0000.35,0000.18,0000.02,-000.23,26.1,04.9,0666.4,34.7
2016-08-19T00:26:00Z,0000388,00000608,0003.76,0001.58,0000.93,-000.06,0000.21,0000.30,0000.07,0000.14,-000.07,26.1,04.9,0666.4,34.7
2016-08-19T00:27:00Z,0000388,00000608,0002.04,0001.95,0001.34,-000.25,0000.05,0000.27,-000.04,-000.04,0000.32,26.1,04.9,0666.5,34.7
2016-08-19T00:28:00Z,0000388,00000608,0002.26,0002.72,0001.12,-000.25,0000.05,0000.00,0000.02,0000.07,-000.09,26.1,04.8,0666.4,34.7
2016-08-19T00:29:00Z,0000388,00000608,0003.35,0001.91,0000.93,0000.73,0000.39,0000.10,0000.17,0000.16,0000.05,26.1,04.8,0666.5,34.7
2016-08-19T00:30:00Z,0000388,00000608,0002.61,0002.47,0000.91,0000.35,0000.63,0000.03,0000.10,-000.00,0000.28,26.1,04.8,0666.5,34.7
2016-08-19T00:31:00Z,0000388,00000608,0002.56,0002.10,0001.30,-000.38,0000.57,0000.32,0000.11,0000.12,-000.09,26.0,04.8,0666.5,34.7
2016-08-19T00:32:00Z,0000388,00000608,0003.11,0001.75,0000.52,0000.36,0000.00,0000.02,0000.23,0000.11,0000.26,26.0,04.9,0666.5,34.7
2016-08-19T00:33:00Z,0000388,00000608,0001.91,0001.87,0000.91,-000.03,0000.35,-000.10,-000.09,0000.05,-000.12,26.0,04.8,0666.5,34.7
2016-08-19T00:34:00Z,0000388,00000608,0002.34,0001.91,0000.86,0000.95,0000.44,0000.05,0000.18,-000.02,0000.34,26.0,04.9,0666.5,34.7
2016-08-19T00:35:00Z,0000388,00000608,0002.35,0001.76,0000.72,0000.10,0000.32,0000.13,-000.01,0000.18,-000.21,26.0,04.8,0666.5,34.7
2016-08-19T00:36:00Z,0000388,00000608,0002.45,0002.43,0000.85,0000.00,0000.55,0000.43,0000.19,0000.01,0000.04,26.0,04.8,0666.5,34.7
2016-08-19T00:37:00Z,0000388,00000608,0002.87,0001.81,0000.97,0000.29,0000.22,-000.29,0000.00,0000.06,0000.11,26.0,04.8,0666.5,34.7
2016-08-19T00:38:00Z,0000388,00000608,0002.34,0002.19,0001.24,-000.28,0000.32,-000.11,0000.22,0000.22,0000.25,26.0,04.8,0666.6,34.7
2016-08-19T00:39:00Z,0000388,00000608,0002.73,0001.98,0000.85,-000.09,0000.38,0000.22,-000.04,0000.11,-000.19,26.0,04.9,0666.6,34.7
2016-08-19T00:40:00Z,0000388,00000608,0002.30,0002.44,0001.03,-000.38,0000.33,0000.25,0000.31,0000.07,0000.20,26.0,04.8,0666.6,34.7
2016-08-19T00:41:00Z,0000388,00000608,0002.78,0001.87,0001.05,0000.57,0000.09,-000.05,-000.27,0000.07,0000.00,26.0,04.8,0666.6,34.7
2016-08-19T00:42:00Z,0000388,00000608,0002.80,0001.43,0001.40,0000.70,0000.41,-000.10,0000.11,-000.04,0000.14,26.0,04.9,0666.5,34.7
2016-08-19T00:43:00Z,0000388,00000608,0002.67,0002.15,0000.91,0000.40,0000.91,-000.14,0000.16,0000.07,-000.33,26.0,04.8,0666.5,34.7
2016-08-19T00:44:00Z,0000388,00000608,0002.72,0001.74,0001.06,0000.90,0000.39,-000.05,0000.00,0000.16,0000.10,26.0,04.9,0666.5,34.7
2016-08-19T00:45:00Z,0000388,00000608,0002.77,0002.40,0001.13,-000.25,0000.38,0000.32,0000.17,0000.06,0000.39,26.0,04.9,0666.5,34.7
2016-08-19T00:46:00Z,0000388,00000608,0003.02,0002.10,0000.83,0000.11,0000.46,0000.52,0000.00,0000.01,0000.18,26.0,04.9,0666.5,34.7
2016-08-19T00:47:00Z,0000388,00000608,0002.55,0001.98,0000.48,-000.16,0000.16,-000.16,0000.18,0000.25,-000.15,26.0,04.9,0666.5,34.7
2016-08-19T00:48:00Z,0000388,00000608,0002.08,0002.05,0001.18,0000.60,0000.22,0000.03,0000.06,0000.05,0000.33,26.0,04.8,0666.6,34.7
2016-08-19T00:49:00Z,0000388,00000608,0002.38,0002.19,0001.05,-000.21,0000.84,0000.35,0000.16,0000.12,0000.23,26.0,04.9,0666.6,34.7
2016-08-19T00:50:00Z,0000388,00000608,0002.03,0001.54,0000.71,0000.16,0000.16,0000.05,0000.07,0000.15,-000.06,26.0,04.9,0666.6,34.7
2016-08-19T00:51:00Z,0000388,00000608,0002.42,0001.89,0000.43,0000.14,0000.43,-000.17,0000.10,-000.01,0000.10,26.0,04.9,0666.6,34.7
2016-08-19T00:52:00Z,0000388,00000608,0002.69,0002.47,0001.15,0000.28,0000.20,0000.08,0000.10,0000.16,0000.01,26.0,04.9,0666.6,34.7
2016-08-19T00:53:00Z,0000388,00000608,0002.73,0001.79,0000.77,-000.13,0000.46,0000.02,0000.08,0000.06,0000.45,26.0,04.9,0666.6,34.7
2016-08-19T00:54:00Z,0000388,00000608,0002.42,0002.52,0001.41,0000.71,-000.16,-000.08,0000.17,0000.04,-000.36,26.0,04.9,0666.6,34.7
2016-08-19T00:55:00Z,0000388,00000608,0003.68,0001.88,0000.86,0000.27,0000.06,0000.49,0000.17,0000.31,0000.37,26.0,04.9,0666.6,34.7
2016-08-19T00:56:00Z,0000388,00000608,0003.02,0001.83,0000.72,0000.03,-000.24,0000.05,0000.10,-000.11,-000.12,26.0,04.9,0666.6,34.7
2016-08-19T00:57:00Z,0000388,40000608,,,,,,,,,,,,0666.8,34.7
2016-08-19T00:58:00Z,0000388,60000608,,,,,,,,,,25.8,05.0,0665.7,34.7
2016-08-19T00:59:00Z,0000388,20000608,,,,,,,,,,25.8,05.0,0665.6,34.7
2016-08-19T01:00:00Z,0000388,20000608,,,,,,,,,,25.8,05.0,0665.6,34.7
2016-08-19T01:01:00Z,0000388,20000608,,,,,,,,,,25.8,05.0,0665.6,34.7
2016-08-19T01:02:00Z,0000388,20000608,,,,,,,,,,25.8,05.0,0665.6,34.7
2016-08-19T01:03:00Z,0000388,60000608,,,,,,,,,,25.8,05.0,0665.6,34.7
2016-08-19T01:04:00Z,0000388,40000608,0002.27,0002.10,0000.98,0000.54,0000.02,-000.02,0000.11,0000.06,0000.17,25.9,04.9,0666.6,34.7
2016-08-19T01:05:00Z,0000388,00000608,0003.75,0001.85,0001.24,0000.22,0000.35,0000.17,0000.10,0000.15,0000.14,25.9,04.9,0666.7,34.7
2016-08-19T01:06:00Z,0000388,00000608,0003.33,0001.67,0000.86,0000.49,0000.11,0000.11,0000.13,-000.12,0000.22,25.9,04.8,0666.7,34.7
2016-08-19T01:07:00Z,0000388,00000608,0002.31,0002.10,0001.08,0000.49,0000.16,0000.03,0000.04,0000.03,-000.21,25.9,04.9,0666.7,34.7
2016-08-19T01:08:00Z,0000388,00000608,0003.35,0002.03,0001.24,0000.92,0000.54,0000.41,0000.01,-000.03,0000.36,25.9,04.8,0666.6,34.7
2016-08-19T01:09:00Z,0000388,00000608,0002.56,0001.93,0001.16,0000.49,-000.11,0000.55,-000.07,0000.18,-000.29,25.9,04.7,0666.6,34.7
2016-08-19T01:10:00Z,0000388,00000608,0003.29,0002.01,0001.11,0000.40,-000.11,0000.16,0000.20,0000.13,0000.41,25.9,04.8,0666.6,34.7
2016-08-19T01:11:00Z,0000388,00000608,0003.33,0002.45,0001.29,0000.25,0000.54,0000.51,0000.06,-000.03,-000.24,25.9,04.7,0666.6,34.7
2016-08-19T01:12:00Z,0000388,00000608,0002.81,0002.28,0001.10,0001.28,0000.16,0000.24,0000.01,0000.15,0000.02,25.9,04.7,0666.7,34.7
2016-08-19T01:13:00Z,0000388,00000608,0002.75,0002.57,0001.16,0000.32,0000.05,-000.10,0000.17,0000.03,0000.13,25.9,04.7,0666.7,34.7
2016-08-19T01:14:00Z,0000388,00000608,0002.76,0002.50,0001.00,0000.43,0000.35,0000.65,0000.23,0000.09,0000.19,25.9,04.7,0666.7,34.7
2016-08-19T01:15:00Z,0000388,00000608,0002.76,0002.01,0001.18,0000.84,0000.44,0000.35,-000.14,0000.07,0000.01,26.0,04.7,0666.7,34.7
2016-08-19T01:16:00Z,0000388,00000608,0001.70,0002.54,0001.17,0000.24,0000.13,0000.22,0000.20,0000.05,-000.31,25.9,04.7,0666.7,34.7
2016-08-19T01:17:00Z,0000388,00000608,0002.88,0001.96,0001.29,0000.47,0000.32,0000.49,-000.00,0000.02,0000.28,26.0,04.6,0666.7,34.7
2016-08-19T01:18:00Z,0000388,00000608,0003.15,0002.03,0001.01,0000.52,0000.08,0000.10,0000.20,0000.13,0000.00,26.0,04.6,0666.7,34.7
2016-08-19T01:19:00Z,0000388,00000608,0002.45,0001.78,0000.86,0000.70,0000.22,0000.36,-000.00,-000.01,0000.11,26.0,04.6,0666.8,34.7
2016-08-19T01:20:00Z,0000388,00000608,0003.39,0002.29,0000.62,0000.32,0000.28,0000.40,0000.18,0000.04,0000.08,26.0,04.6,0666.8,34.7
2016-08-19T01:21:00Z,0000388,00000608,0002.42,0001.89,0001.17,0000.38,0000.19,0000.24,0000.01,0000.19,0000.09,26.0,04.5,0666.8,34.7
2016-08-19T01:22:00Z,0000388,00000608,0002.77,0002.08,0001.00,0000.17,0000.30,0000.41,0000.17,0000.03,0000.12,26.0,04.5,0666.8,34.7
2016-08-19T01:23:00Z,0000388,00000608,0003.50,0001.80,0000.88,0000.28,0000.14,0000.25,0000.02,0000.01,0000.07,26.0,04.5,0666.8,34.7
2016-08-19T01:24:00Z,0000388,00000608,0002.87,0001.83,0001.28,-000.16,0000.65,0000.24,0000.07,-000.00,0000.00,26.0,04.5,0666.8,34.7
2016-08-19T01:25:00Z,0000388,00000608,0002.98,0001.99,0001.14,0000.90,0000.20,-000.05,0000.20,0000.19,0000.17,26.0,04.5,0666.8,34.7
2016-08-19T01:26:00Z,0000388,00000608,0002.85,0002.11,0001.10,0000.09,0000.47,0000.35,-000.02,0000.11,-000.11,26.0,04.4,0666.8,34.7
2016-08-19T01:27:00Z,0000388,00000608,0003.16,0001.51,0001.67,0000.49,0000.20,0000.10,-000.00,-000.08,0000.06,26.0,04.4,0666.8,34.7
2016-08-19T01:28:00Z,0000388,00000608,0002.30,0001.82,0001.06,0000.22,0000.54,0000.16,0000.31,0000.11,0000.07,26.0,04.4,0666.9,34.7
2016-08-19T01:29:00Z,0000388,00000608,0003.74,0001.86,0001.44,0000.68,0000.47,0000.13,-000.03,-000.03,0000.13,26.0,04.4,0666.8,34.7
2016-08-19T01:30:00Z,0000388,00000608,0003.08,0002.39,0001.19,0000.76,0000.38,0000.30,0000.12,0000.14,0000.15,26.0,04.3,0666.8,34.7
2016-08-19T01:31:00Z,0000388,00000608,0003.76,0002.06,0001.39,0000.25,0000.19,0000.14,0000.06,0000.14,-000.16,26.0,04.3,0666.8,34.7
2016-08-19T01:32:00Z,0000388,00000608,0003.34,0002.47,0001.22,0000.97,0000.44,0000.21,0000.22,0000.15,-000.15,26.0,04.3,0666.8,34.7
2016-08-19T01:33:00Z,0000388,00000608,0003.65,0001.68,0001.61,0000.40,-000.06,0000.36,-000.15,-000.07,0000.28,26.0,04.3,0666.8,34.7
2016-08-19T01:34:00Z,0000388,00000608,0001.91,0001.97,0001.42,0000.68,0000.50,0000.36,0000.17,0000.23,0000.26,26.0,04.3,0666.8,34.7
2016-08-19T01:35:00Z,0000388,00000608,0003.42,0002.93,0001.34,0000.65,0000.35,0000.19,0000.18,-000.04,-000.13,26.0,04.3,0666.8,34.7
2016-08-19T01:36:00Z,0000388,00000608,0002.98,0002.37,0001.65,0000.46,0000.28,0000.33,0000.08,0000.05,0000.12,26.0,04.3,0666.9,34.7
2016-08-19T01:37:00Z,0000388,00000608,0003.96,0002.06,0001.19,0000.41,0000.36,0000.21,-000.02,-000.06,0000.04,26.0,04.2,0666.8,34.7
2016-08-19T01:38:00Z,0000388,00000608,0003.42,0002.85,0001.01,0000.51,0000.47,-000.13,0000.08,0000.23,0000.04,26.0,04.3,0666.8,34.7
2016-08-19T01:39:00Z,0000388,00000608,0002.67,0002.14,0000.76,0000.11,0000.36,0000.22,-000.03,0000.03,-000.20,26.0,04.2,0666.8,34.7
2016-08-19T01:40:00Z,0000388,00000608,0003.50,0002.37,0001.28,0000.97,0000.06,0000.10,0000.17,0000.13,0000.67,26.0,04.3,0666.8,34.7
2016-08-19T01:41:00Z,0000388,00000608,0004.22,0002.01,0001.25,0000.43,0000.27,0000.25,0000.17,0000.14,-000.20,26.0,04.3,0666.8,34.7
2016-08-19T01:42:00Z,0000388,00000608,0003.11,0002.64,0001.16,0001.04,0000.13,0000.36,0000.11,-000.06,-000.05,26.0,04.2,0666.9,34.7
2016-08-19T01:43:00Z,0000388,00000608,0003.10,0001.99,0001.04,0000.32,0000.17,0000.33,0000.06,0000.32,0000.11,26.0,04.2,0666.9,34.7
2016-08-19T01:44:00Z,0000388,00000608,0002.89,0002.29,0001.27,0000.68,0000.54,0000.17,0000.06,-000.05,-000.24,26.0,04.1,0666.8,34.7
2016-08-19T01:45:00Z,0000388,00000608,0003.25,0002.06,0000.80,0000.82,0000.30,0000.17,0000.22,0000.25,-000.15,26.0,04.2,0666.8,34.7
2016-08-19T01:46:00Z,0000388,00000608,0002.93,0002.53,0001.22,0000.40,0000.44,0000.05,0000.12,-000.04,0000.32,26.0,04.2,0666.9,34.7
2016-08-19T01:47:00Z,0000388,00000608,0002.56,0001.26,0001.54,-000.27,0000.47,0000.44,0000.17,0000.11,0000.36,26.0,04.2,0666.9,34.7
2016-08-19T01:48:00Z,0000388,00000608,0003.37,0002.15,0000.90,0000.49,-000.14,0000.21,-000.11,0000.12,0000.10,26.0,04.2,0666.9,34.7
2016-08-19T01:49:00Z,0000388,00000608,0001.88,0002.11,0001.05,0000.40,0000.20,0000.21,0000.28,0000.12,0000.20,26.0,04.2,0666.8,34.7
2016-08-19T01:50:00Z,0000388,00000608,0003.92,0002.10,0000.94,0000.49,0000.22,0000.65,0000.04,-000.10,0000.06,26.0,04.2,0666.8,34.7
2016-08-19T01:51:00Z,0000388,00000608,0002.46,0002.54,0001.09,-000.08,0000.49,0000.10,-000.04,0000.17,-000.21,26.0,04.2,0666.8,34.7
2016-08-19T01:52:00Z,0000388,00000608,0003.37,0002.44,0001.10,0000.85,0000.38,-000.05,0000.08,0000.19,-000.08,26.0,04.2,0666.7,34.7
2016-08-19T01:53:00Z,0000388,00000608,0003.87,0002.55,0001.09,0000.44,0000.55,0000.40,0000.17,0000.04,0000.10,26.0,04.2,0666.8,34.7
2016-08-19T01:54:00Z,0000388,00000608,0002.93,0002.36,0001.40,0000.41,0000.43,0000.19,0000.05,0000.13,0000.27,26.0,04.1,0666.7,34.7
2016-08-19T01:55:00Z,0000388,00000608,0003.80,0002.17,0001.13,0000.95,0000.38,0000.06,0000.14,0000.01,-000.04,26.0,04.1,0666.8,34.7
2016-08-19T01:56:00Z,0000388,00000608,0003.35,0001.43,0001.00,0000.85,0000.87,-000.05,0000.13,-000.05,0000.10,26.0,04.2,0666.8,34.7
2016-08-19T01:57:00Z,0000388,40000608,,,,,,,,,,,,0666.8,34.7
2016-08-19T01:58:00Z,0000388,60000608,,,,,,,,,,25.9,04.3,0665.8,34.7
2016-08-19T01:59:00Z,0000388,20000608,,,,,,,,,,25.9,04.3,0665.8,34.7
2016-08-19T02:00:00Z,0000388,20000608,,,,,,,,,,26.0,04.1,0665.8,34.7
2016-08-19T02:01:00Z,0000388,20000608,,,,,,,,,,26.0,04.1,0665.8,34.7
2016-08-19T02:02:00Z,0000388,20000608,,,,,,,,,,26.0,04.1,0665.8,34.7
2016-08-19T02:03:00Z,0000388,60000608,,,,,,,,,,26.0,04.1,0665.8,34.7
2016-08-19T02:04:00Z,0000388,40000608,0002.82,0002.07,0000.98,0000.38,0000.35,0000.11,0000.18,0000.13,-000.21,26.1,04.0,0666.8,34.7
2016-08-19T02:05:00Z,0000388,00000608,0003.19,0002.12,0001.37,0000.40,-000.17,0000.40,0000.15,0000.13,0000.60,26.1,04.0,0666.9,34.7
2016-08-19T02:06:00Z,0000388,00000608,0003.25,0001.67,0000.75,0000.41,0000.00,-000.11,0000.09,0000.05,-000.69,26.2,03.9,0666.9,34.7
2016-08-19T02:07:00Z,0000388,00000608,0002.43,0002.48,0001.07,0000.36,0000.44,0000.03,0000.11,0000.19,0000.45,26.2,03.8,0666.9,34.7
2016-08-19T02:08:00Z,0000388,00000608,0003.39,0001.85,0001.33,0000.43,0000.58,0000.03,0000.16,-000.03,0000.43,26.2,03.9,0666.9,34.7
2016-08-19T02:09:00Z,0000388,00000608,0002.26,0003.36,0001.70,0000.30,0000.39,0000.16,0000.07,0000.07,-000.15,26.2,03.9,0666.9,34.7
2016-08-19T02:10:00Z,0000388,00000608,0002.63,0002.43,0001.08,-000.10,-000.02,0000.03,0000.01,0000.05,0000.09,26.2,03.8,0666.9,34.7
2016-08-19T02:11:00Z,0000388,00000608,0002.89,0002.66,0000.72,0000.48,0000.00,-000.06,0000.11,0000.04,-000.15,26.2,03.8,0666.9,34.7
2016-08-19T02:12:00Z,0000388,00000608,0002.25,0001.48,0001.04,0000.36,-000.36,0000.05,0000.14,-000.03,-000.02,26.2,03.8,0666.9,34.7
2016-08-19T02:13:00Z,0000388,00000608,0003.42,0002.59,0001.84,0000.67,0000.05,0000.24,-000.04,0000.32,0000.10,26.2,03.7,0666.9,34.7
2016-08-19T02:14:00Z,0000388,00000608,0002.99,0002.03,0000.77,0000.57,0000.54,0000.03,0000.15,0000.04,-000.05,26.2,03.7,0666.9,34.7
2016-08-19T02:15:00Z,0000388,00000608,0002.14,0002.10,0001.20,0000.73,0000.13,-000.05,-000.01,0000.07,0000.31,26.2,03.8,0666.9,34.7
2016-08-19T02:16:00Z,0000388,00000608,0004.01,0001.80,0000.75,0000.52,0000.06,0000.05,0000.26,-000.07,-000.08,26.2,03.7,0667.0,34.7
2016-08-19T02:17:00Z,0000388,00000608,0002.40,0002.04,0001.42,0000.06,0000.22,-000.11,0000.14,0000.25,0000.14,26.2,03.6,0666.9,34.7
2016-08-19T02:18:00Z,0000388,00000608,0002.88,0002.02,0001.82,0001.03,0000.24,0000.30,0000.01,-000.02,0000.30,26.2,03.6,0666.9,34.7
2016-08-19T02:19:00Z,0000388,00000608,0003.57,0002.43,0001.66,0000.65,0000.47,0000.35,0000.04,0000.16,-000.27,26.2,03.6,0666.9,34.7
2016-08-19T02:20:00Z,0000388,00000608,0003.58,0002.81,0001.45,0000.81,0000.32,-000.24,0000.27,0000.11,0000.06,26.3,03.6,0666.9,34.7
2016-08-19T02:21:00Z,0000388,00000608,0002.86,0002.90,0001.52,0000.79,0000.19,0000.22,0000.29,0000.16,0000.20,26.3,03.7,0666.9,34.7
2016-08-19T02:22:00Z,0000388,00000608,0002.18,0002.34,0001.30,0001.25,0000.17,0000.13,-000.03,0000.02,-000.11,26.3,03.7,0666.9,34.7
2016-08-19T02:23:00Z,0000388,00000608,0002.94,0002.59,0001.37,0000.41,0000.44,-000.11,0000.11,0000.15,0000.28,26.3,03.7,0667.0,34.7
2016-08-19T02:24:00Z,0000388,00000608,0003.01,0002.74,0001.58,0000.52,0000.24,0000.16,-000.05,0000.19,0000.23,26.3,03.7,0667.0,34.7
2016-08-19T02:25:00Z,0000388,00000608,0002.51,0003.10,0001.47,0000.27,0000.36,0000.11,0000.34,-000.01,0000.03,26.3,03.6,0667.0,34.7
2016-08-19T02:26:00Z,0000388,00000608,0004.62,0002.66,0001.15,0000.33,-000.09,0000.17,0000.20,0000.04,-000.17,26.3,03.6,0667.0,34.7
2016-08-19T02:27:00Z,0000388,00000608,0002.91,0002.59,0001.88,0000.46,0000.00,0000.35,-000.01,0000.26,0000.32,26.3,03.6,0667.0,34.7
2016-08-19T02:28:00Z,0000388,00000608,0002.75,0002.47,0001.44,0000.06,0000.33,0000.05,0000.10,0000.05,-000.02,26.3,03.7,0667.0,34.7
2016-08-19T02:29:00Z,0000388,00000608,0002.16,0002.66,0001.28,-000.02,0000.06,0000.36,0000.10,0000.12,0000.18,26.3,03.6,0667.0,34.7
2016-08-19T02:30:00Z,0000388,00000608,0003.13,0002.03,0000.95,0000.76,0000.21,0000.30,0000.03,0000.00,0000.27,26.3,03.6,0667.0,34.8
2016-08-19T02:31:00Z,0000388,00000608,0002.93,0002.34,0001.29,0000.19,0000.08,-000.11,0000.07,-000.02,-000.02,26.4,03.7,0667.0,34.8
2016-08-19T02:32:00Z,0000388,00000608,0001.89,0002.49,0001.29,-000.08,-000.41,0000.30,0000.16,0000.38,-000.19,26.4,03.6,0667.0,34.8
2016-08-19T02:33:00Z,0000388,00000608,0003.21,0002.28,0001.24,0000.44,0000.21,0000.06,0000.11,0000.02,0000.37,26.4,03.6,0667.0,34.8
2016-08-19T02:34:00Z,0000388,00000608,0003.09,0002.24,0001.12,0000.41,0000.05,-000.06,0000.19,-000.01,0000.05,26.4,03.6,0667.0,34.8
2016-08-19T02:35:00Z,0000388,00000608,0003.44,0002.28,0001.44,0000.54,-000.19,0000.30,0000.02,0000.24,-000.03,26.5,03.6,0667.0,34.8
2016-08-19T02:36:00Z,0000388,00000608,0002.54,0002.69,0001.10,0000.89,0000.06,0000.21,0000.11,0000.09,0000.30,26.5,03.6,0667.1,34.8
2016-08-19T02:37:00Z,0000388,00000608,0002.60,0001.80,0001.30,-000.17,0000.21,0000.21,0000.15,-000.08,-000.01,26.5,03.6,0667.1,34.8
2016-08-19T02:38:00Z,0000388,00000608,0002.97,0002.46,0000.82,0000.25,0000.54,0000.06,0000.16,0000.12,-000.04,26.5,03.6,0667.1,34.8
2016-08-19T02:39:00Z,0000388,00000608,0002.12,0002.77,0001.24,0000.81,0000.13,0000.10,0000.10,0000.27,-000.11,26.5,03.7,0667.1,34.8
2016-08-19T02:40:00Z,0000388,00000608,0002.55,0002.12,0001.36,0000.43,-000.43,0000.30,0000.17,0000.02,0000.44,26.5,03.6,0667.1,34.8
2016-08-19T02:41:00Z,0000388,00000608,0002.70,0002.49,0000.81,0000.74,0000.27,-000.05,0000.09,0000.00,0000.03,26.5,03.6,0667.1,34.8
2016-08-19T02:42:00Z,0000388,00000608,0002.63,0001.98,0001.20,-000.13,0000.05,0000.06,-000.01,0000.16,-000.05,26.5,03.6,0667.1,34.8
2016-08-19T02:43:00Z,0000388,00000608,0002.62,0002.06,0001.46,0000.10,-000.22,0000.13,0000.36,0000.09,0000.03,26.5,03.6,0667.1,34.8
2016-08-19T02:44:00Z,0000388,00000608,0002.60,0003.08,0001.27,0000.24,-000.03,0000.21,-000.01,0000.10,-000.10,26.5,03.5,0667.1,34.8
2016-08-19T02:45:00Z,0000388,00000608,0004.08,0001.73,0001.32,0000.00,0000.13,0000.14,0000.09,0000.03,0000.10,26.5,03.6,0667.1,34.7
2016-08-19T02:46:00Z,0000388,00000608,0002.44,0002.77,0001.60,0000.13,0000.32,0000.43,0000.07,0000.14,0000.13,26.5,03.6,0667.1,34.7
2016-08-19T02:47:00Z,0000388,00000608,0002.37,0002.16,0000.86,-000.38,-000.05,0000.27,0000.25,0000.00,0000.39,26.5,03.6,0667.1,34.7
2016-08-19T02:48:00Z,0000388,00000608,0002.34,0002.95,0001.01,0000.57,-000.06,0000.08,-000.03,0000.10,-000.33,26.5,03.6,0667.1,34.7
2016-08-19T02:49:00Z,0000388,00000608,0002.08,0002.30,0001.12,0000.13,0000.36,0000.08,0000.24,0000.30,0000.10,26.5,03.6,0667.1,34.7
2016-08-19T02:50:00Z,0000388,00000608,0002.62,0002.38,0001.24,0000.44,-000.09,0000.11,-000.02,0000.00,0000.12,26.5,03.6,0667.2,34.7
2016-08-19T02:51:00Z,0000388,00000608,0003.25,0001.96,0001.08,0000.60,0000.14,0000.14,-000.00,-000.05,0000.12,26.5,03.6,0667.2,34.7
2016-08-19T02:52:00Z,0000388,00000608,0002.52,0001.47,0001.53,0000.48,0000.32,0000.29,0000.26,0000.09,-000.01,26.5,03.5,0667.2,34.7
2016-08-19T02:53:00Z,0000388,00000608,0002.52,0002.29,0001.10,-000.05,0000.09,0000.17,0000.21,0000.04,0000.29,26.5,03.6,0667.2,34.7
2016-08-19T02:54:00Z,0000388,00000608,0003.30,0001.80,0001.52,-000.06,-000.03,0000.14,-000.01,0000.22,0000.03,26.5,03.5,0667.2,34.7
2016-08-19T02:55:00Z,0000388,00000608,0003.48,0002.88,0001.20,0000.76,0000.13,0000.30,0000.23,0000.15,0000.22,26.5,03.6,0667.2,34.7
2016-08-19T02:56:00Z,0000388,00000608,0002.26,0002.39,0001.24,0000.67,0000.00,0000.17,0000.11,0000.11,-000.05,26.4,03.5,0667.2,34.7
2016-08-19T02:57:00Z,0000388,40000608,,,,,,,,,,,,0667.0,34.7
2016-08-19T02:58:00Z,0000388,60000608,,,,,,,,,,26.3,03.7,0666.2,34.7
2016-08-19T02:59:00Z,0000388,20000608,,,,,,,,,,26.3,03.6,0666.2,34.7
2016-08-19T03:00:00Z,0000388,20000608,,,,,,,,,,26.3,03.6,0666.2,34.7
2016-08-19T03:01:00Z,0000388,20000608,,,,,,,,,,26.3,03.6,0666.2,34.7
2016-08-19T03:02:00Z,0000388,20000608,,,,,,,,,,26.3,03.6,0666.2,34.7
2016-08-19T03:03:00Z,0000388,60000608,,,,,,,,,,26.3,03.6,0666.2,34.7
2016-08-19T03:04:00Z,0000388,40000608,0003.35,0001.51,0001.00,0000.02,0000.32,0000.33,0000.04,0000.05,-000.08,26.3,03.6,0667.1,34.7
2016-08-19T03:05:00Z,0000388,00000608,0002.54,0002.53,0001.18,0000.62,0000.69,0000.46,0000.09,0000.05,0000.18,26.3,03.6,0667.1,34.7
2016-08-19T03:06:00Z,0000388,00000608,0002.39,0002.02,0000.96,0000.25,0000.35,0000.48,-000.08,0000.01,-000.03,26.3,03.5,0667.1,34.7
2016-08-19T03:07:00Z,0000388,00000608,0003.05,0002.35,0000.40,0000.63,0000.38,0000.36,0000.39,0000.39,0000.20,26.3,03.5,0667.1,34.7
2016-08-19T03:08:00Z,0000388,00000608,0003.04,0002.42,0001.10,0000.43,0000.44,0000.33,-000.16,-000.12,-000.10,26.3,03.5,0667.1,34.7
2016-08-19T03:09:00Z,0000388,00000608,0002.16,0002.29,0000.91,0000.29,0000.28,0000.17,-000.01,0000.18,0000.26,26.4,03.5,0667.1,34.7
2016-08-19T03:10:00Z,0000388,00000608,0002.59,0001.97,0000.85,0000.17,0000.44,-000.08,0000.20,0000.08,0000.10,26.4,03.6,0667.0,34.7
2016-08-19T03:11:00Z,0000388,00000608,0001.74,0001.95,0000.97,0000.33,0000.44,0000.19,0000.23,0000.07,-000.22,26.4,03.5,0667.1,34.7
2016-08-19T03:12:00Z,0000388,00000608,0002.42,0001.86,0000.96,0000.79,0000.57,0000.51,0000.20,0000.35,0000.50,26.4,03.6,0667.0,34.7